Location: Stoke Bliss
(52.2667°N, 2.5167°W)
Time: 14:43:03
(UTC+00:00)

USA 245 - Pass Details

Date: 03 March 2021
Orbit: 268 x 988 km, 97.9° (Epoch: 11 April)

Event Time Altitude Azimuth Distance (km) Brightness Sun altitude
Exits shadow 21:05:14 79° 11° (NNE) 926 4.3 -29.1°
Drops below altitude 10° 21:11:07 10° 347° (NNW) 2,728 7.3 -29.9°
Sets 21:13:44 0° 347° (NNW) 3,711 8.1 -30.2°
